GW4121 Weather Reports


time (UTC)temp
C
wind
direction
speed
KPH
gust
KPH
rain 1hr
cm
rain 24hr
cm
rain mn
cm
humidity
%
barometer
mb
20260906035716 15 0 0.0 0.0 0.00 0.03 0.00 93 1025.6
20260906035003 15 253 0.0 1.6 0.00 0.03 0.00 93 1025.7
20260906034503 15 247 0.0 6.4 0.00 0.03 0.00 93 1025.6
20260906034003 15 246 0.0 6.4 0.00 0.03 0.00 93 1025.7
20260906033503 15 0 0.0 0.0 0.00 0.03 0.00 93 1025.7
20260906033217 15 0 0.0 0.0 0.00 0.03 0.00 93 1025.7
20260906032718 15 0 0.0 0.0 0.00 0.03 0.00 93 1025.8
20260906032003 15 241 0.0 1.6 0.00 0.03 0.00 93 1025.6
20260906031503 15 241 0.0 1.6 0.00 0.03 0.00 93 1025.5
20260906031003 15 237 0.0 3.2 0.00 0.03 0.00 93 1025.5
20260906030503 15 236 0.0 3.2 0.00 0.03 0.00 93 1025.5
20260906030217 15 228 0.0 1.6 0.00 0.03 0.00 92 1025.5
20260906025718 15 226 0.0 1.6 0.00 0.03 0.00 92 1025.4
20260906025003 15 208 0.0 1.6 0.00 0.03 0.00 92 1025.4
20260906024503 16 205 0.0 1.6 0.00 0.03 0.00 91 1025.4
20260906024003 16 233 0.0 1.6 0.00 0.03 0.00 91 1025.3
20260906023503 16 254 0.0 3.2 0.00 0.03 0.00 91 1025.2
20260906023003 16 252 0.0 3.2 0.00 0.03 0.00 91 1025.1
20260906022718 16 252 0.0 3.2 0.00 0.03 0.00 91 1025.1
20260906022003 16 257 0.0 3.2 0.00 0.03 0.00 92 1025.1
20260906021503 16 0 0.0 0.0 0.00 0.03 0.00 92 1025.1
20260906021003 16 0 0.0 0.0 0.00 0.03 0.00 92 1025.1
20260906020503 16 0 0.0 0.0 0.00 0.03 0.00 92 1025.0
20260906020003 16 0 0.0 0.0 0.00 0.03 0.00 93 1025.1
20260906015718 16 0 0.0 0.0 0.00 0.03 0.00 93 1025.1
20260906015216 16 0 0.0 0.0 0.00 0.03 0.00 93 1025.1
20260906014503 16 0 0.0 0.0 0.00 0.03 0.00 92 1025.1
20260906014003 16 0 0.0 0.0 0.00 0.03 0.00 92 1025.1
20260906013717 16 0 0.0 0.0 0.00 0.03 0.00 92 1025.0
20260906013003 16 0 0.0 0.0 0.00 0.03 0.00 93 1025.0
20260906012717 16 0 0.0 0.0 0.00 0.03 0.00 93 1025.1
20260906012003 16 0 0.0 0.0 0.00 0.03 0.00 93 1025.0
20260906011503 16 0 0.0 0.0 0.00 0.03 0.00 93 1025.0
20260906011003 16 0 0.0 0.0 0.00 0.03 0.00 92 1024.9
20260906010503 16 0 0.0 0.0 0.00 0.03 0.00 92 1025.0
20260906010003 16 0 0.0 0.0 0.00 0.03 0.00 92 1024.9
20260906005503 16 0 0.0 0.0 0.00 0.03 0.00 92 1024.7
20260906005003 16 0 0.0 0.0 0.00 0.03 0.00 92 1024.7
20260906004503 16 0 0.0 0.0 0.00 0.03 0.00 92 1024.7
20260906004003 16 0 0.0 0.0 0.00 0.03 0.00 91 1024.7
20260906003503 16 0 0.0 0.0 0.00 0.03 0.00 91 1024.6
20260906003003 16 0 0.0 0.0 0.00 0.03 0.00 91 1024.5
20260906002503 16 0 0.0 0.0 0.00 0.03 0.00 91 1024.5
20260906002003 16 0 0.0 0.0 0.00 0.03 0.00 91 1024.5
20260906001503 16 0 0.0 0.0 0.00 0.03 0.00 91 1024.5
20260906001003 16 0 0.0 0.0 0.00 0.03 0.00 91 1024.5
20260906000503 16 0 0.0 0.0 0.00 0.03 0.00 91 1024.6
20260906000219 16 0 0.0 0.0 0.00 0.03 0.00 91 1024.6
20260905235503 16 0 0.0 0.0 0.00 0.03 0.00 92 1024.6
20260905235003 16 0 0.0 0.0 0.00 0.03 0.00 91 1024.6
20260905234503 16 0 0.0 0.0 0.00 0.03 0.00 91 1024.5
20260905234003 16 0 0.0 0.0 0.00 0.03 0.00 92 1024.5
20260905233503 16 0 0.0 0.0 0.00 0.03 0.00 92 1024.5
20260905233003 16 0 0.0 0.0 0.00 0.03 0.00 91 1024.4
20260905232503 16 0 0.0 0.0 0.00 0.03 0.00 92 1024.4
20260905232003 16 0 0.0 0.0 0.00 0.03 0.00 92 1024.5
20260905231503 16 0 0.0 0.0 0.00 0.03 0.00 92 1024.5
20260905231003 16 0 0.0 0.0 0.00 0.03 0.00 91 1024.5
20260905230503 16 0 0.0 0.0 0.00 0.03 0.00 92 1024.4
20260905230003 16 0 0.0 0.0 0.00 0.03 0.00 92 1024.5
20260905225503 16 0 0.0 0.0 0.00 0.03 0.00 91 1024.4
20260905225218 16 0 0.0 0.0 0.00 0.03 0.00 91 1024.4
20260905224503 16 0 0.0 0.0 0.00 0.03 0.00 91 1024.3
20260905224217 16 0 0.0 0.0 0.00 0.03 0.00 91 1024.3
20260905223716 16 0 0.0 0.0 0.00 0.03 0.00 91 1024.3
20260905223003 16 0 0.0 0.0 0.00 0.03 0.00 90 1024.2
20260905222503 16 248 0.0 1.6 0.00 0.03 0.00 90 1024.2
20260905222003 16 248 0.0 1.6 0.00 0.03 0.00 90 1024.2
20260905221503 16 248 0.0 1.6 0.00 0.03 0.00 90 1024.2
20260905221003 16 0 0.0 0.0 0.00 0.03 0.00 90 1024.1
20260905220503 16 0 0.0 0.0 0.00 0.03 0.00 89 1024.0
20260905220219 16 0 0.0 0.0 0.00 0.03 0.00 89 1024.1
20260905215503 17 245 0.0 3.2 0.00 0.03 0.03 89 1024.0
20260905215003 17 253 0.0 3.2 0.00 0.03 0.03 88 1023.9
20260905214718 16 262 0.0 1.6 0.00 0.03 0.03 89 1023.9
20260905214003 16 251 0.0 1.6 0.00 0.03 0.03 90 1023.8
20260905213503 16 317 0.0 1.6 0.00 0.03 0.03 90 1023.8
20260905213217 16 312 0.0 1.6 0.00 0.03 0.03 90 1023.8
20260905212503 16 253 0.0 1.6 0.00 0.03 0.03 90 1023.7
20260905212003 16 240 0.0 1.6 0.00 0.03 0.03 91 1023.8
20260905211718 16 165 0.0 1.6 0.00 0.03 0.03 91 1023.8
20260905211003 16 118 0.0 1.6 0.00 0.03 0.03 91 1023.8
20260905210503 16 0 0.0 0.0 0.00 0.03 0.03 91 1023.8
20260905210003 16 0 0.0 0.0 0.00 0.03 0.03 90 1023.7
20260905205503 17 119 0.0 1.6 0.00 0.03 0.03 90 1023.8
20260905205003 17 143 0.0 1.6 0.00 0.03 0.03 90 1023.7
20260905204503 17 211 0.0 1.6 0.00 0.03 0.03 90 1023.6
20260905204217 17 238 0.0 1.6 0.00 0.03 0.03 90 1023.6
20260905203503 16 238 0.0 1.6 0.00 0.03 0.03 91 1023.7
20260905203003 17 239 0.0 1.6 0.00 0.03 0.03 91 1023.6
20260905202503 17 239 0.0 1.6 0.00 0.03 0.03 90 1023.6
20260905202003 17 282 0.0 1.6 0.00 0.03 0.03 90 1023.6
20260905201503 17 282 0.0 1.6 0.00 0.03 0.03 90 1023.6
20260905201003 17 0 0.0 0.0 0.00 0.03 0.03 90 1023.5
20260905200503 17 0 0.0 0.0 0.00 0.03 0.03 90 1023.5
20260905200003 17 0 0.0 0.0 0.00 0.03 0.03 90 1023.4
20260905195503 17 0 0.0 0.0 0.00 0.03 0.03 90 1023.4
20260905195216 17 0 0.0 0.0 0.00 0.03 0.03 90 1023.4
20260905194503 17 0 0.0 0.0 0.00 0.03 0.03 89 1023.4
20260905194218 17 26 0.0 1.6 0.00 0.03 0.03 89 1023.2
20260905193503 17 24 0.0 1.6 0.00 0.03 0.03 89 1023.2
20260905193003 17 348 0.0 3.2 0.00 0.03 0.03 89 1023.2
20260905192719 17 346 0.0 3.2 0.00 0.03 0.03 89 1023.2
20260905192003 17 246 0.0 1.6 0.00 0.03 0.03 90 1023.1
20260905191503 17 293 0.0 1.6 0.00 0.03 0.03 90 1023.0
20260905191003 17 291 0.0 1.6 0.00 0.03 0.03 89 1023.0
20260905190717 17 275 0.0 1.6 0.00 0.03 0.03 89 1023.0
20260905190218 17 300 0.0 1.6 0.00 0.03 0.03 89 1023.0
20260905185503 17 292 0.0 1.6 0.00 0.03 0.03 89 1023.0
20260905185003 17 343 0.0 1.6 0.00 0.03 0.03 90 1023.0
20260905184503 17 345 0.0 1.6 0.00 0.03 0.03 88 1022.9
20260905184218 17 345 0.0 1.6 0.00 0.03 0.03 88 1022.8
20260905183503 17 0 0.0 0.0 0.00 0.03 0.03 89 1022.8
20260905183003 17 0 0.0 0.0 0.00 0.03 0.03 88 1022.9
20260905182503 17 0 0.0 0.0 0.00 0.03 0.03 88 1022.8
20260905182218 17 0 0.0 0.0 0.00 0.03 0.03 89 1022.7
20260905181503 18 0 0.0 0.0 0.00 0.03 0.03 88 1022.6
20260905181218 18 313 0.0 1.6 0.00 0.03 0.03 88 1022.6
20260905180717 18 312 0.0 3.2 0.00 0.03 0.03 87 1022.5
20260905180003 18 295 0.0 1.6 0.00 0.03 0.03 89 1022.5
20260905175503 18 319 0.0 3.2 0.00 0.03 0.03 88 1022.3
20260905175218 18 322 0.0 4.8 0.00 0.03 0.03 89 1022.3
20260905174503 18 314 0.0 4.8 0.00 0.03 0.03 89 1022.0
20260905174003 18 291 0.0 4.8 0.00 0.03 0.03 89 1022.1
20260905173503 18 298 0.0 4.8 0.03 0.03 0.03 88 1021.9
20260905173003 18 296 0.0 4.8 0.03 0.03 0.03 89 1021.9
20260905172503 18 0 0.0 0.0 0.03 0.03 0.03 89 1021.7
20260905172003 18 0 0.0 0.0 0.03 0.03 0.03 89 1021.6
20260905171503 18 285 0.0 1.6 0.03 0.03 0.03 89 1021.6
20260905171003 18 278 0.0 1.6 0.03 0.03 0.03 88 1021.7
20260905170503 18 244 0.0 3.2 0.03 0.03 0.03 88 1021.5
20260905170003 18 244 0.0 3.2 0.03 0.03 0.03 88 1021.6
20260905165503 19 280 0.0 1.6 0.03 0.03 0.03 89 1021.6
20260905165003 19 314 0.0 4.8 0.03 0.03 0.03 89 1021.5
20260905164503 19 317 0.0 4.8 0.03 0.03 0.03 88 1021.4
20260905164003 19 294 1.6 8.0 0.03 0.03 0.03 88 1021.5
20260905163503 19 273 1.6 8.0 0.00 0.00 0.00 87 1021.6
20260905163217 19 270 0.0 4.8 0.00 0.00 0.00 88 1021.5
20260905162718 19 270 0.0 4.8 0.00 0.00 0.00 88 1021.5
20260905162003 20 264 0.0 4.8 0.00 0.00 0.00 88 1021.5
20260905161503 20 286 0.0 3.2 0.00 0.00 0.00 88 1021.6
20260905161003 20 279 0.0 3.2 0.00 0.00 0.00 87 1021.6
20260905160503 20 259 0.0 1.6 0.00 0.00 0.00 87 1021.6
20260905160217 20 258 0.0 1.6 0.00 0.00 0.00 87 1021.6
20260905155503 20 305 1.6 6.4 0.00 0.00 0.00 85 1021.6
20260905155003 20 305 1.6 6.4 0.00 0.00 0.00 84 1021.5
20260905154503 20 302 0.0 4.8 0.00 0.00 0.00 85 1021.6
20260905154003 20 0 0.0 0.0 0.00 0.00 0.00 86 1021.3
20260905153503 20 0 0.0 0.0 0.00 0.00 0.00 85 1021.5
20260905153003 21 0 0.0 0.0 0.00 0.00 0.00 83 1021.5
20260905152503 21 0 0.0 0.0 0.00 0.00 0.00 81 1021.5
20260905152003 21 0 0.0 0.0 0.00 0.00 0.00 82 1021.4
20260905151503 21 0 0.0 0.0 0.00 0.00 0.00 82 1021.3
20260905151003 21 0 0.0 0.0 0.00 0.00 0.00 84 1021.3
20260905150503 21 0 0.0 0.0 0.00 0.00 0.00 82 1021.3
20260905150003 21 0 0.0 0.0 0.00 0.00 0.00 83 1021.4
20260905145503 21 0 0.0 0.0 0.00 0.00 0.00 84 1021.4
20260905145216 21 0 0.0 0.0 0.00 0.00 0.00 83 1021.5
20260905144503 21 0 0.0 0.0 0.00 0.00 0.00 84 1021.5
20260905144216 21 0 0.0 0.0 0.00 0.00 0.00 84 1021.6
20260905143717 21 126 0.0 1.6 0.00 0.00 0.00 82 1021.6
20260905143003 21 126 0.0 1.6 0.00 0.00 0.00 81 1021.5
20260905142503 21 312 0.0 3.2 0.00 0.00 0.00 80 1021.7
20260905142003 21 51 1.6 6.4 0.00 0.00 0.00 77 1021.6
20260905141503 21 71 3.2 8.0 0.00 0.00 0.00 76 1021.7
20260905141003 21 72 4.8 9.7 0.00 0.00 0.00 75 1021.6
20260905140503 21 75 4.8 9.7 0.00 0.00 0.00 74 1021.6
20260905140004 21 47 4.8 11.3 0.00 0.00 0.00 72 1021.6
20260905135503 21 347 4.8 14.5 0.00 0.00 0.00 72 1021.6
20260905135003 22 300 4.8 14.5 0.00 0.00 0.00 72 1021.5
20260905134503 22 240 4.8 11.3 0.00 0.00 0.00 69 1021.4
20260905134003 22 294 4.8 16.1 0.00 0.00 0.00 69 1021.4
20260905133503 22 314 6.4 16.1 0.00 0.00 0.00 70 1021.3
20260905133218 22 315 6.4 16.1 0.00 0.00 0.00 69 1021.4
20260905132717 22 329 9.7 25.7 0.00 0.00 0.00 69 1021.4
20260905132003 22 351 14.5 27.4 0.00 0.00 0.00 68 1021.3
20260905131503 23 360 9.7 27.4 0.00 0.00 0.00 65 1021.4
20260905131003 25 100 4.8 12.9 0.00 0.00 0.00 56 1021.5
20260905130717 25 93 4.8 14.5 0.00 0.00 0.00 56 1021.1
20260905130003 25 112 6.4 17.7 0.00 0.00 0.00 54 1020.9
20260905125717 25 113 8.0 17.7 0.00 0.00 0.00 54 1020.8
20260905125218 25 108 8.0 16.1 0.00 0.00 0.00 54 1020.9
20260905124503 25 97 8.0 16.1 0.00 0.00 0.00 56 1020.9
20260905124003 25 83 6.4 11.3 0.00 0.00 0.00 57 1021.0
20260905123503 24 88 6.4 16.1 0.00 0.00 0.00 56 1021.1
20260905123003 25 97 6.4 16.1 0.00 0.00 0.00 55 1021.0
20260905122503 25 100 6.4 14.5 0.00 0.00 0.00 56 1020.9
20260905122003 25 107 6.4 14.5 0.00 0.00 0.00 56 1020.7
20260905121716 25 103 6.4 14.5 0.00 0.00 0.00 55 1020.7
20260905121003 25 97 6.4 17.7 0.00 0.00 0.00 55 1020.6
20260905120503 25 94 6.4 17.7 0.00 0.00 0.00 57 1020.5
20260905120003 25 98 8.0 19.3 0.00 0.00 0.00 55 1020.4
20260905115503 25 104 8.0 19.3 0.00 0.00 0.00 56 1020.4
20260905115003 25 106 8.0 19.3 0.00 0.00 0.00 56 1020.6
20260905114503 25 99 9.7 19.3 0.00 0.00 0.00 56 1020.6
20260905114003 25 95 9.7 24.1 0.00 0.00 0.00 55 1020.6
20260905113503 25 95 11.3 24.1 0.00 0.00 0.00 56 1020.5
20260905113217 25 92 11.3 24.1 0.00 0.00 0.00 55 1020.5
20260905112503 25 95 11.3 20.9 0.00 0.00 0.00 55 1020.4
20260905112003 25 96 11.3 22.5 0.00 0.00 0.00 56 1020.6
20260905111503 25 96 11.3 22.5 0.00 0.00 0.00 57 1020.4
20260905111003 25 102 9.7 19.3 0.00 0.00 0.00 56 1020.3
20260905110503 25 100 9.7 20.9 0.00 0.00 0.00 58 1020.2
20260905110003 25 108 11.3 20.9 0.00 0.00 0.00 60 1020.2
20260905105503 25 115 12.9 27.4 0.00 0.00 0.00 58 1020.1
20260905105003 25 106 11.3 27.4 0.00 0.00 0.00 58 1020.3
20260905104503 25 101 11.3 25.7 0.00 0.00 0.00 59 1020.2
20260905104003 25 97 12.9 24.1 0.00 0.00 0.00 59 1020.3
20260905103718 25 94 11.3 24.1 0.00 0.00 0.00 61 1020.3
20260905103003 25 99 9.7 20.9 0.00 0.00 0.00 63 1020.4
20260905102503 25 108 9.7 20.9 0.00 0.00 0.00 62 1020.3
20260905102003 25 97 11.3 25.7 0.00 0.00 0.00 64 1020.2
20260905101718 25 92 11.3 25.7 0.00 0.00 0.00 64 1020.0
20260905101003 26 97 9.7 24.1 0.00 0.00 0.00 63 1020.0
20260905100718 26 99 11.3 24.1 0.00 0.00 0.00 63 1019.9
20260905100003 26 95 12.9 27.4 0.00 0.00 0.00 64 1019.9
20260905095503 26 91 12.9 25.7 0.00 0.00 0.00 63 1019.9
20260905095216 26 89 11.3 25.7 0.00 0.00 0.00 64 1019.9
20260905094503 26 105 9.7 24.1 0.00 0.00 0.00 65 1019.7
20260905094003 27 105 11.3 24.1 0.00 0.00 0.00 64 1019.7
20260905093503 27 105 9.7 24.1 0.00 0.00 0.00 66 1019.7
20260905093003 27 110 8.0 19.3 0.00 0.00 0.00 64 1019.6
20260905092717 27 109 8.0 22.5 0.00 0.00 0.00 65 1019.5
20260905092003 26 102 8.0 22.5 0.00 0.00 0.00 66 1019.5
20260905091503 27 89 4.8 14.5 0.00 0.00 0.00 67 1019.3
20260905091003 27 85 1.6 6.4 0.00 0.00 0.00 65 1018.9
20260905090503 27 63 0.0 4.8 0.00 0.00 0.00 67 1018.8
20260905090003 27 69 1.6 4.8 0.00 0.00 0.00 67 1018.7
20260905085503 27 82 3.2 6.4 0.00 0.00 0.00 67 1018.8
20260905085003 26 70 3.2 6.4 0.00 0.00 0.00 66 1018.6
20260905084503 27 59 3.2 8.0 0.00 0.00 0.00 68 1018.6
20260905084003 27 63 3.2 8.0 0.00 0.00 0.00 67 1018.6
20260905083503 27 84 3.2 6.4 0.00 0.00 0.00 66 1018.6
20260905083003 27 117 1.6 4.8 0.00 0.00 0.00 65 1018.6
20260905082503 27 142 1.6 3.2 0.00 0.00 0.00 65 1018.6
20260905082003 27 147 3.2 6.4 0.00 0.00 0.00 65 1018.6
20260905081503 27 151 3.2 6.4 0.00 0.00 0.00 66 1018.6
20260905081003 27 155 3.2 6.4 0.00 0.00 0.00 66 1018.6
20260905080503 27 144 1.6 4.8 0.00 0.00 0.00 66 1018.5
20260905080003 26 129 1.6 4.8 0.00 0.00 0.00 69 1018.5
20260905075503 26 137 1.6 3.2 0.00 0.00 0.00 67 1018.3
20260905075003 26 144 1.6 4.8 0.00 0.00 0.00 70 1018.2
20260905074503 26 141 1.6 4.8 0.00 0.00 0.00 69 1018.2
20260905074218 26 145 1.6 4.8 0.00 0.00 0.00 71 1018.3
20260905073717 26 0 0.0 0.0 0.00 0.00 0.00 71 1018.1
20260905073218 25 0 0.0 0.0 0.00 0.00 0.00 70 1018.2
20260905072503 25 0 0.0 0.0 0.00 0.00 0.00 76 1018.2
20260905072003 25 96 0.0 1.6 0.00 0.00 0.00 74 1018.1
20260905071717 25 93 0.0 3.2 0.00 0.00 0.00 74 1018.1
20260905071003 25 21 1.6 3.2 0.00 0.00 0.00 72 1018.1
20260905070716 25 354 1.6 3.2 0.00 0.00 0.00 72 1018.0
20260905070003 25 0 0.0 0.0 0.00 0.00 0.00 70 1018.0
20260905065503 26 0 0.0 0.0 0.00 0.00 0.00 71 1017.9
20260905065003 25 0 0.0 0.0 0.00 0.00 0.00 74 1017.9
20260905064716 25 0 0.0 0.0 0.00 0.00 0.00 73 1017.9
20260905064003 25 13 0.0 3.2 0.00 0.00 0.00 74 1017.8
20260905063503 25 335 0.0 1.6 0.00 0.00 0.00 73 1017.7
20260905063003 25 335 0.0 1.6 0.00 0.00 0.00 74 1017.7
20260905062503 23 0 0.0 0.0 0.00 0.00 0.00 75 1017.8
20260905062217 23 0 0.0 0.0 0.00 0.00 0.00 75 1017.8
20260905061503 23 0 0.0 0.0 0.00 0.00 0.00 76 1017.7
20260905061217 23 0 0.0 0.0 0.00 0.00 0.00 78 1017.6
20260905060503 22 333 0.0 1.6 0.00 0.00 0.00 80 1017.6
20260905060003 22 333 0.0 1.6 0.00 0.00 0.00 80 1017.7
20260905055503 22 0 0.0 0.0 0.00 0.00 0.00 81 1017.7
20260905055003 21 334 0.0 1.6 0.00 0.00 0.00 84 1017.8
20260905054503 21 334 0.0 1.6 0.00 0.00 0.00 83 1017.7
20260905054003 20 0 0.0 0.0 0.00 0.00 0.00 84 1017.6
20260905053503 20 333 0.0 3.2 0.00 0.00 0.00 85 1017.6
20260905053003 20 334 1.6 6.4 0.00 0.00 0.00 84 1017.5
20260905052503 20 334 3.2 6.4 0.00 0.00 0.00 83 1017.5
20260905052003 19 335 0.0 4.8 0.00 0.00 0.00 85 1017.4
20260905051718 19 333 0.0 1.6 0.00 0.00 0.00 85 1017.5
20260905051003 18 333 0.0 3.2 0.00 0.00 0.00 87 1017.3
20260905050503 18 332 0.0 3.2 0.00 0.00 0.00 86 1017.3
20260905050003 18 329 0.0 1.6 0.00 0.00 0.00 87 1017.2
20260905045503 18 333 1.6 6.4 0.00 0.00 0.00 87 1017.2
20260905045003 18 334 1.6 6.4 0.00 0.00 0.00 87 1017.1
20260905044503 18 335 1.6 6.4 0.00 0.00 0.00 87 1017.1
20260905044003 18 335 0.0 4.8 0.00 0.00 0.00 87 1017.1
20260905043503 18 330 0.0 1.6 0.00 0.00 0.00 87 1017.2
20260905043003 17 331 0.0 1.6 0.00 0.00 0.00 87 1017.2
20260905042503 18 331 0.0 1.6 0.00 0.00 0.00 87 1017.2
20260905042003 18 335 0.0 1.6 0.00 0.00 0.00 87 1017.1
20260905041503 18 335 0.0 1.6 0.00 0.00 0.00 86 1017.1
20260905041003 18 335 0.0 1.6 0.00 0.00 0.00 86 1017.1
20260905040503 18 334 0.0 1.6 0.00 0.00 0.00 87 1016.9
20260905040003 18 335 0.0 3.2 0.00 0.00 0.00 86 1016.9